COSMOS 2251 DEB, 40794

Orbit data source: Space-Track

COSMOS 2251 DEB, 40794 is space debris in LEO originally from a launch on Wed, 16 Jun 1993 UTC launched from the Plesetsk Missile And Space Complex (PKMTR). The debris from Iridium 33, an American commercial communications satellite, has been tracked extensively since its accidental collision with the defunct Russian satellite Cosmos 2251 in 2009. This event, occurring at high speed in low Earth orbit (LEO), generated thousands of pieces of space debris, significantly increasing the risk of further collisions. The Iridium 33 debris cloud has impacted space traffic management and orbital debris mitigation strategies, making it a subject of ongoing study in space situational awareness.

Loading next visibility...
Identifier
40794, 1993-036BVX
Orbit
LEO
Country
Flag of CISCIS
Related business
Manufacturer
Unknown
Mission
Spacecraft
Bus & Motor
Unknown
Mass
Unknown
Launch date (UTC)
1993-06-16 (32 years ago)
Launch vehicle
Unknown
Launch site
Plesetsk Missile And Space Complex (PKMTR)
Object type
Payload
Rocket body
Debris
Shape & HBR
Unknown shape, 0.1 m
Radar Cross Section
Small (<0.1 m²)

Expand to show TLE details & history
Last TLE update: 4 days ago

TLE from 4 days ago
0 COSMOS 2251 DEB
1 40794U 93036BVX 25303.02430720  .00041403  00000-0  43690-2 0  9992
2 40794  73.9779 212.1163 0011401 322.4092  54.9546 14.89031439612737
Epoch: 2025-10-30T00:35Z
TLE epoch observation values (Epoch: 2025-10-30T00:35:00.142Z)
Latitude
16.76303°
Longitude
169.71172°
Altitude
598.43 km
Speed
7.565 km/s
True Right ascension
14h 28m 12s
True Declination
16° 39' 58"
Sunlit
Object was in daylight at epoch
Visualization orbit readout
Latitude
Unknown
Longitude
Unknown
Altitude
Unknown
Speed
Unknown
Apparent Right ascension
Unknown
Apparent Declination
Unknown
Sunlit
N/A
Visualization observer readout
Local Sidereal Time
13:43:36
Azimuth
Unknown
Elevation
Unknown
Doppler factor
Unknown
Orbital elements
Apogee altitude
606.485 km
Perigee altitude
590.577 km
Semi-major axis
6,976.668 km
Eccentricity
0.00114
Inclination
73.9779°
RAAN
212.1163°
Arg. of periapsis
322.4092°
True anomaly
55.06165°
Mean anomaly
54.9546°
Eccentric anomaly
55.00811°
Mean motion
3.72453 °/min
Orbital period
96.66 mins
BSTAR
0.004369
Loading maneuver chart data...
Computing Atmospheric mass density...

Documentation

Showing up to 5 results
|